Flag Weather past 2 weeks in Klagenfurt, Carinthia, Austria

Now
41 °F

Low clouds.


Feels Like: 39 °F
Forecast: 27 / 38 °F
Wind: 3 mph from East

Location: Klagenfurt-Flughafen

Current Time: Nov 26, 2014 at 4:14:26 PM

Latest Report: Nov 26, 2014 at 3:50 PM


Visibility: N/A

Pressure: 30.09 "Hg

Humidity: 70%

Dew point: 32 °F

Location of KlagenfurtLocation

Historic Weather in Klagenfurt — Graph

°F

Klagenfurt temperature yesterday

Maximum temperature yesterday: 39 °F (at 12:20 AM)
Minimum temperature yesterday: 39 °F (at 12:20 AM)
Average temperature yesterday: 39 °F

Past Weeks' High & Low Weather Summary

 TemperatureHumidityPressure
High57 °F (Nov 16, 2:50 PM)100% (Nov 11, 2:20 PM)30.39 "Hg (Nov 11, 2:20 PM)
Low34 °F (Nov 22, 10:20 PM)55% (Nov 16, 3:20 PM)29.59 "Hg (Nov 16, 1:50 AM)
Average44 °F92%30.03 "Hg
* Reported Nov 11 2:20 PM — Nov 26 2:50 PM, Klagenfurt, Weather by CustomWeather, © 2014

Note: Actual official high and low records may vary slightly from our data, if they occured in-between our weather recording intervals... More about our weather records

Advertising

Klagenfurt weather history for previous 24 hours

 ConditionsComfort  
Time TempWeatherWind HumidityBarometerVisibility
2:50 PM
Nov 26
41 °FLow clouds.5 mph76%30.12 "HgN/A
2:20 PM41 °FLow clouds.5 mph76%30.12 "HgN/A
1:50 PM41 °FLow clouds.5 mph76%30.12 "HgN/A
1:20 PM41 °FLow clouds.5 mph76%30.12 "HgN/A
12:50 PM39 °FLow clouds.5 mph81%30.15 "HgN/A
12:20 PM39 °FMore clouds than sun.5 mph87%30.15 "HgN/A
11:50 AM39 °FMore clouds than sun.5 mph87%30.15 "HgN/A
11:20 AM39 °FPartly sunny.6 mph87%30.15 "HgN/A
10:50 AM39 °FPartly sunny.6 mph87%30.15 "HgN/A
10:20 AM39 °FPartly sunny.3 mph87%30.18 "HgN/A
9:50 AM39 °FPartly sunny.2 mph87%30.18 "HgN/A
9:20 AM39 °FLow clouds.2 mph87%30.18 "HgN/A
8:50 AM39 °FMore clouds than sun.1 mph87%30.18 "HgN/A
8:20 AM39 °FOvercast.1 mph87%30.18 "HgN/A
7:50 AM39 °FOvercast.1 mph87%30.15 "HgN/A
7:20 AM39 °FOvercast.2 mph87%30.15 "HgN/A
6:50 AM39 °FOvercast.2 mph87%30.15 "HgN/A
6:20 AM39 °FPartly cloudy.2 mph87%30.18 "HgN/A
5:50 AM39 °FPassing clouds.2 mph87%30.15 "HgN/A
5:20 AM39 °FLight rain. Passing clouds.2 mph87%30.18 "HgN/A
4:50 AM39 °FPassing clouds.2 mph87%30.18 "HgN/A
4:20 AM39 °FPassing clouds.2 mph87%30.18 "HgN/A
3:50 AM39 °FPassing clouds.2 mph87%30.18 "HgN/A
3:20 AM39 °FPassing clouds.2 mph87%30.18 "HgN/A
2:50 AM39 °FPassing clouds.2 mph87%30.21 "HgN/A
2:20 AM39 °FOvercast.2 mph87%30.21 "HgN/A
1:50 AM39 °FPartly cloudy.2 mph87%30.21 "HgN/A
1:20 AM39 °FPartly cloudy.1 mph87%30.21 "HgN/A
12:50 AM39 °FSprinkles. Partly cloudy.3 mph87%30.24 "HgN/A
12:20 AM39 °FPassing clouds.3 mph87%30.24 "HgN/A
11:50 PM
Nov 25
39 °FPartly cloudy.3 mph87%30.24 "HgN/A
11:20 PM39 °FPartly cloudy.5 mph87%30.24 "HgN/A
10:50 PM39 °FPartly cloudy.5 mph87%30.24 "HgN/A
10:20 PM39 °FPassing clouds.5 mph87%30.24 "HgN/A
9:50 PM39 °FPassing clouds.5 mph87%30.24 "HgN/A
9:20 PM39 °FPassing clouds.5 mph87%30.24 "HgN/A
8:50 PM39 °FPassing clouds.2 mph87%30.27 "HgN/A
8:20 PM39 °FPassing clouds.1 mph87%30.27 "HgN/A
7:50 PM39 °FMostly cloudy.2 mph87%30.24 "HgN/A
7:20 PM39 °FMostly cloudy.2 mph87%30.24 "HgN/A
6:50 PM39 °FMostly cloudy.2 mph87%30.27 "HgN/A
6:20 PM39 °FLow clouds.2 mph87%30.24 "HgN/A
5:50 PM39 °FLow clouds.2 mph87%30.24 "HgN/A
5:20 PM39 °FLow clouds.1 mph87%30.24 "HgN/A
4:50 PM39 °FLow clouds.3 mph87%30.24 "HgN/A
4:20 PM39 °FLow clouds.2 mph87%30.24 "HgN/A
Weather by CustomWeather, © 2014

See weather overviewHow to use our weather pages